[TLELIST] Archives

 

[list_settings.list_name] Current TLEs

May 16th 2009 PST

HST 1 20580U 90037B 09134.53767208 +.00042590 +00000-0 +32649-2 0 03876 2 20580 028.4844 321.9009 0002635 308.8673 091.8764 15.00571298844797 ISS (ZARYA) 1 25544U 98067A 09136.17518505 .00011336 00000-0 86240-4 0 8594 2 25544 051.6388 111.0991 0009415 008.6075 099.5948 15.72804077600911 CXO 1 25867U 99040B 09134.75000000 +.00000409 +00000-0 +10000-3 0 03237 2 25867 065.3014 070.3515 7464332 276.0653 357.0083 00.37805998004883 ____________________________________________________________________ These 2-Line ...Continue Reading

[list_settings.list_name] Current TLEs

May 15th 2009 PST

HST 1 20580U 90037B 09133.34071759 -.00101332 -35383-5 -30216-3 0 03861 2 20580 028.4641 329.7994 0238182 072.7299 292.4253 15.58645058844612 ISS (ZARYA) 1 25544U 98067A 09135.15841635 .00010142 00000-0 77744-4 0 8520 2 25544 051.6385 116.3109 0009434 004.8950 102.4223 15.72775338600757 CXO 1 25867U 99040B 09132.21317873 .00000000 00000-0 10000-3 0 3254 2 25867 065.2920 070.4031 7456959 276.0809 011.6634 00.37815049 4884 ____________________________________________________________________ These 2-Line ...Continue Reading

[list_settings.list_name] Current TLEs

May 14th 2009 PST

HST 1 20580U 90037B 09132.93383239 +.00000388 +00000-0 +17126-4 0 03915 2 20580 028.4692 332.3792 0003661 283.8491 076.1691 15.00483233844553 ISS (ZARYA) 1 25544U 98067A 09132.86666337 +.00007957 +00000-0 +62134-4 0 08414 2 25544 051.6381 128.0575 0009238 356.0283 086.8599 15.72720878600393 CXO 1 25867U 99040B 09132.12500000 +.00000298 +00000-0 +10000-3 0 03226 2 25867 065.2923 070.4297 7459513 276.0695 359.6709 00.37806577004876 ____________________________________________________________________ These 2-Line ...Continue Reading

[list_settings.list_name] Current TLEs

May 13th 2009 PST

HST 1 20580U 90037B 09131.93611587 +.00000361 +00000-0 +15076-4 0 03939 2 20580 028.4693 338.8866 0003709 272.6057 087.4111 15.00482640844401 ISS (ZARYA) 1 25544U 98067A 09133.20171296 .00007941 00000-0 62008-4 0 8422 2 25544 051.6379 126.3404 0009215 357.2974 183.8555 15.72726624600448 CXO 1 25867U 99040B 09132.12500000 +.00000298 +00000-0 +10000-3 0 03226 2 25867 065.2923 070.4297 7459513 276.0695 359.6709 00.37806577004876 ____________________________________________________________________ These 2-Line ...Continue Reading

[list_settings.list_name] Current TLEs

May 12th 2009 PST

HST 1 20580U 90037B 09131.93611587 .00000361 00000-0 15076-4 0 3850 2 20580 028.4693 338.8866 0003709 272.6057 087.4111 15.00482640844401 ISS (ZARYA) 1 25544U 98067A 09132.16995506 .00007961 00000-0 62199-4 0 8371 2 25544 051.6380 131.6284 0009180 353.7485 101.8775 15.72708900600287 CXO 1 25867U 99040B 09132.12500000 +.00000298 +00000-0 +10000-3 0 03226 2 25867 065.2923 070.4297 7459513 276.0695 359.6709 00.37806577004876 ____________________________________________________________________ These 2-Line ...Continue Reading

[list_settings.list_name] Current TLEs

May 11th 2009 PST

HST 1 20580U 90037B 09130.87188475 .00000312 00000-0 11264-4 0 3847 2 20580 028.4693 345.8276 0003809 261.6174 098.3983 15.00481906844247 ISS (ZARYA) 1 25544U 98067A 09130.81861111 .00009345 00000-0 72252-4 0 8295 2 25544 051.6386 138.5545 0009365 348.3756 011.1884 15.72691069600062 CXO 1 25867U 99040B 09126.83333333 +.00000354 +00000-0 +10000-3 0 03212 2 25867 065.2711 070.5744 7445696 276.1145 359.2721 00.37805562004858 ____________________________________________________________________ These 2-Line ...Continue Reading

[list_settings.list_name] Current TLEs

May 10th 2009 PST

HST 1 20580U 90037B 09128.94296571 +.00000314 +00000-0 +11405-4 0 03938 2 20580 028.4690 358.4107 0003912 241.9618 118.0580 15.00481275843955 ISS (ZARYA) 1 25544U 98067A 09128.92671837 +.00010087 +00000-0 +77746-4 0 08184 2 25544 051.6396 148.2503 0009004 341.2020 099.9723 15.72654908599773 CXO 1 25867U 99040B 09126.83333333 +.00000354 +00000-0 +10000-3 0 03212 2 25867 065.2711 070.5744 7445696 276.1145 359.2721 00.37805562004858 ____________________________________________________________________ These 2-Line ...Continue Reading

[list_settings.list_name] Current TLEs

May 9th 2009 PST

HST 1 20580U 90037B 09129.00948007 .00000322 00000-0 12038-4 0 3835 2 20580 028.4690 357.9770 0003891 242.3697 117.6496 15.00481366843966 ISS (ZARYA) 1 25544U 98067A 09129.18177792 .00010967 00000-0 84087-4 0 8200 2 25544 051.6390 146.9441 0009256 342.4891 103.6997 15.72663671599819 CXO 1 25867U 99040B 09126.83333333 +.00000354 +00000-0 +10000-3 0 03212 2 25867 065.2711 070.5744 7445696 276.1145 359.2721 00.37805562004858 ____________________________________________________________________ These 2-Line ...Continue Reading

[list_settings.list_name] Current TLEs

May 8th 2009 PST

HST 1 20580U 90037B 09127.87873474 .00000284 00000-0 90685-5 0 3824 2 20580 028.4690 005.3534 0003957 231.4264 128.5969 15.00480739843790 ISS (ZARYA) 1 25544U 98067A 09128.17217435 .00009275 00000-0 71912-4 0 8121 2 25544 051.6392 152.1183 0009358 338.5293 147.8843 15.72635674599652 CXO 1 25867U 99040B 09126.83333333 +.00000354 +00000-0 +10000-3 0 03212 2 25867 065.2711 070.5744 7445696 276.1145 359.2721 00.37805562004858 ____________________________________________________________________ These 2-Line ...Continue Reading

[list_settings.list_name] Current TLEs

May 7th 2009 PST

HST 1 20580U 90037B 09126.01632982 .00000301 00000-0 10357-4 0 3812 2 20580 028.4690 017.4997 0003974 212.0697 147.9656 15.00480368843517 ISS (ZARYA) 1 25544U 98067A 09126.18781661 +.00006100 +00000-0 +48978-4 0 08026 2 25544 051.6397 162.2853 0009053 330.1997 074.3697 15.72589856599341 CXO 1 25867U 99040B 09126.83333333 +.00000354 +00000-0 +10000-3 0 03212 2 25867 065.2711 070.5744 7445696 276.1145 359.2721 00.37805562004858 ____________________________________________________________________ These 2-Line ...Continue Reading
  • This mailing list is a public mailing list - anyone may join or leave, at any time.
  • This mailing list is announce-only.

International Space Station (ISS) / Hubble Space Telescope (HST) / Chandra X-Ray Observatory Orbital Data via EMAIL

Privacy Policy:

Private list